Weather History for Mankato, MN

Change the Weather History Date:

Wednesday, December 12, 2012

  Actual Average Record
Temperature  
Mean Temperature 28 °F -  
Max Temperature 42 °F 29 °F 48 °F (1998)
Min Temperature 14 °F 16 °F -14 °F (2000)
Degree Days  
Heating Degree Days 37    
Moisture  
Dew Point 21 °F    
Average Humidity 64    
Maximum Humidity 93    
Minimum Humidity 48    
Precipitation  
Precipitation 0.00 in - - ()
Sea Level Pressure  
Sea Level Pressure 29.88 in    
Wind  
Wind Speed 12 mph (South)    
Max Wind Speed 20 mph    
Max Gust Speed 26 mph    
Visibility 10 miles    
Events      
Averages and records for this station are not official NWS values.
T = Trace of Precipitation, MM = Missing Value Source: NWS Daily Summary

Daily Weather History Graph

Daily Weather History Graph

Search for Another Location

Airport:

Trip Planner

Search our weather history database for the weather conditions in past years. The results will help you decide how hot, cold, wet, or windy it might be!

Date:

Astronomy

Dec. 12, 2012 Rise Set
Actual Time 7:42 AM CST 4:36 PM CST
Civil Twilight 7:09 AM CST 5:10 PM CST
Nautical Twilight 6:32 AM CST 5:46 PM CST
Astronomical Twilight 5:57 AM CST 6:21 PM CST
Moon 6:46 AM CST (12/12) 4:15 PM CST (12/12)
Length of Visible Light 10h 00m
Length of Day
8h 54m
Waning Crescent, 1% of the Moon is Illuminated
Dec 12
Waning Crescent
Dec 13
New
Dec 19
First Quarter
Dec 28
Full
Jan 4
Last Quarter

Hourly Weather History & Observations

Time (CST) Temp. Windchill Dew Point Humidity Pressure Visibility Wind Dir Wind Speed Gust Speed Precip Events Conditions
12:15 AM 14.0 °F 3.9 °F 10.4 °F 86% 29.97 in 5.0 mi ESE 6.9 mph - N/A   Clear
12:35 AM 15.8 °F 5.1 °F 12.2 °F 86% 29.96 in 5.0 mi ESE 8.1 mph - N/A   Clear
12:55 AM 17.6 °F 6.4 °F 15.8 °F 93% 29.95 in 6.0 mi ESE 9.2 mph - N/A   Clear
1:15 AM 17.6 °F 6.4 °F 15.8 °F 93% 29.95 in 6.0 mi ESE 9.2 mph - N/A   Clear
1:35 AM 17.6 °F 5.7 °F 15.8 °F 93% 29.95 in 6.0 mi ESE 10.4 mph - N/A   Clear
1:55 AM 15.8 °F 3.4 °F 12.2 °F 86% 29.94 in 7.0 mi ESE 10.4 mph - N/A   Clear
2:15 AM 15.8 °F 2.7 °F 12.2 °F 86% 29.95 in 7.0 mi SE 11.5 mph - N/A   Clear
2:35 AM 17.6 °F 4.3 °F 15.8 °F 93% 29.94 in 8.0 mi SE 12.7 mph - N/A   Clear
2:55 AM 19.4 °F 6.0 °F 15.8 °F 86% 29.93 in 10.0 mi SE 13.8 mph - N/A   Clear
3:15 AM 19.4 °F 5.5 °F 17.6 °F 93% 29.92 in 10.0 mi SE 15.0 mph - N/A   Clear
3:35 AM 19.4 °F 4.5 °F 17.6 °F 93% 29.92 in 10.0 mi SE 17.3 mph - N/A   Clear
3:55 AM 21.2 °F 7.8 °F 17.6 °F 86% 29.91 in 10.0 mi SE 15.0 mph - N/A   Clear
4:15 AM 23.0 °F 10.6 °F 19.4 °F 86% 29.90 in 10.0 mi SE 13.8 mph - N/A   Clear
4:35 AM 23.0 °F 10.6 °F 19.4 °F 86% 29.89 in 10.0 mi SE 13.8 mph - N/A   Clear
4:55 AM 24.8 °F 14.0 °F 19.4 °F 80% 29.89 in 10.0 mi SSE 11.5 mph - N/A   Clear
5:15 AM 24.8 °F 14.0 °F 19.4 °F 80% 29.88 in 10.0 mi SSE 11.5 mph - N/A   Clear
5:35 AM 26.6 °F 16.8 °F 19.4 °F 74% 29.88 in 10.0 mi SSE 10.4 mph - N/A   Mostly Cloudy
5:55 AM 26.6 °F 15.7 °F 19.4 °F 74% 29.88 in 10.0 mi South 12.7 mph - N/A   Overcast
6:15 AM 26.6 °F 16.2 °F 19.4 °F 74% 29.88 in 10.0 mi South 11.5 mph - N/A   Overcast
6:35 AM 28.4 °F 18.0 °F 19.4 °F 69% 29.87 in 10.0 mi South 12.7 mph - N/A   Overcast
6:55 AM 28.4 °F 18.5 °F 21.2 °F 74% 29.86 in 10.0 mi South 11.5 mph - N/A   Overcast
7:15 AM 28.4 °F 18.5 °F 21.2 °F 74% 29.86 in 10.0 mi South 11.5 mph - N/A   Overcast
7:35 AM 30.2 °F 19.8 °F 21.2 °F 69% 29.86 in 10.0 mi South 13.8 mph 18.4 mph N/A   Mostly Cloudy
7:55 AM 30.2 °F 20.2 °F 21.2 °F 69% 29.86 in 10.0 mi South 12.7 mph 18.4 mph N/A   Partly Cloudy
8:15 AM 30.2 °F 20.2 °F 21.2 °F 69% 29.86 in 10.0 mi South 12.7 mph 17.3 mph N/A   Clear
8:35 AM 30.2 °F 19.8 °F 21.2 °F 69% 29.87 in 10.0 mi South 13.8 mph - N/A   Mostly Cloudy
8:55 AM 32.0 °F 22.5 °F 21.2 °F 64% 29.87 in 10.0 mi South 12.7 mph - N/A   Overcast
9:15 AM 33.8 °F 23.9 °F 21.2 °F 60% 29.87 in 10.0 mi South 15.0 mph 23.0 mph N/A   Overcast
9:35 AM 33.8 °F 23.5 °F 21.2 °F 60% 29.87 in 10.0 mi SSW 16.1 mph 24.2 mph N/A   Overcast
9:55 AM 33.8 °F 23.5 °F 21.2 °F 60% 29.87 in 10.0 mi South 16.1 mph 23.0 mph N/A   Partly Cloudy
10:15 AM 33.8 °F 23.5 °F 19.4 °F 56% 29.87 in 10.0 mi SSW 16.1 mph 21.9 mph N/A   Partly Cloudy
10:35 AM 35.6 °F 25.2 °F 21.2 °F 56% 29.86 in 10.0 mi South 18.4 mph 26.5 mph N/A   Scattered Clouds
10:55 AM 35.6 °F 25.9 °F 21.2 °F 56% 29.86 in 10.0 mi SSW 16.1 mph 21.9 mph N/A   Clear
11:15 AM 37.4 °F 28.9 °F 23.0 °F 56% 29.85 in 10.0 mi SSW 13.8 mph 20.7 mph N/A   Clear
11:35 AM 37.4 °F 28.5 °F 23.0 °F 56% 29.84 in 10.0 mi SSW 15.0 mph 20.7 mph N/A   Clear
11:55 AM 37.4 °F 27.2 °F 23.0 °F 56% 29.83 in 10.0 mi South 19.6 mph 26.5 mph N/A   Clear
12:15 PM 39.2 °F 30.5 °F 24.8 °F 56% 29.82 in 10.0 mi SSW 16.1 mph 26.5 mph N/A   Clear
12:35 PM 39.2 °F 29.8 °F 24.8 °F 56% 29.81 in 10.0 mi South 18.4 mph 23.0 mph N/A   Clear
12:55 PM 39.2 °F 30.8 °F 24.8 °F 56% 29.81 in 10.0 mi South 15.0 mph 24.2 mph N/A   Clear
1:15 PM 41.0 °F 32.5 °F 24.8 °F 53% 29.81 in 10.0 mi South 17.3 mph 23.0 mph N/A   Clear
1:35 PM 42.8 °F 35.8 °F 24.8 °F 49% 29.82 in 10.0 mi SSW 13.8 mph 23.0 mph N/A   Clear
1:55 PM 42.8 °F 35.1 °F 24.8 °F 49% 29.82 in 10.0 mi SSW 16.1 mph 21.9 mph N/A   Clear
2:15 PM 42.8 °F 35.8 °F 24.8 °F 49% 29.81 in 10.0 mi SSW 13.8 mph 19.6 mph N/A   Clear
2:35 PM 42.8 °F 36.6 °F 26.6 °F 53% 29.82 in 10.0 mi SSW 11.5 mph - N/A   Clear
2:55 PM 42.8 °F 36.6 °F 24.8 °F 49% 29.82 in 10.0 mi SSW 11.5 mph - N/A   Clear
3:15 PM 42.8 °F 36.6 °F 24.8 °F 49% 29.82 in 10.0 mi SSW 11.5 mph - N/A   Clear
3:35 PM 42.8 °F 37.0 °F 26.6 °F 53% 29.83 in 10.0 mi SSW 10.4 mph - N/A   Clear
3:55 PM 42.8 °F 36.6 °F 24.8 °F 49% 29.83 in 10.0 mi SSW 11.5 mph - N/A   Clear
4:15 PM 42.8 °F 35.4 °F 24.8 °F 49% 29.83 in 10.0 mi SSW 15.0 mph 19.6 mph N/A   Clear
4:35 PM 42.8 °F 36.2 °F 24.8 °F 49% 29.84 in 10.0 mi SSW 12.7 mph - N/A   Clear
4:55 PM 42.8 °F 36.6 °F 24.8 °F 49% 29.85 in 10.0 mi South 11.5 mph - N/A   Clear
5:15 PM 41.0 °F 35.2 °F 24.8 °F 53% 29.85 in 10.0 mi South 9.2 mph - N/A   Clear
5:35 PM 42.8 °F 37.5 °F 24.8 °F 49% 29.86 in 10.0 mi South 9.2 mph - N/A   Partly Cloudy
5:55 PM 42.8 °F 37.0 °F 24.8 °F 49% 29.86 in 10.0 mi South 10.4 mph - N/A   Clear
6:15 PM 42.8 °F 37.0 °F 24.8 °F 49% 29.86 in 10.0 mi South 10.4 mph - N/A   Clear
6:55 PM 41.0 °F 34.3 °F 23.0 °F 49% 29.87 in 10.0 mi South 11.5 mph - N/A   Clear
7:15 PM 39.2 °F 32.5 °F 23.0 °F 52% 29.88 in 10.0 mi South 10.4 mph - N/A   Clear
7:35 PM 39.2 °F 32.0 °F 23.0 °F 52% 29.88 in 10.0 mi South 11.5 mph - N/A   Clear
7:55 PM 39.2 °F 31.6 °F 23.0 °F 52% 29.89 in 10.0 mi South 12.7 mph 18.4 mph N/A   Clear
8:15 PM 37.4 °F 28.9 °F 23.0 °F 56% 29.90 in 10.0 mi South 13.8 mph - N/A   Clear
8:35 PM 37.4 °F 28.5 °F 21.2 °F 52% 29.90 in 10.0 mi South 15.0 mph - N/A   Clear
8:55 PM 37.4 °F 28.2 °F 23.0 °F 56% 29.90 in 10.0 mi South 16.1 mph 21.9 mph N/A   Clear
9:15 PM 37.4 °F 29.8 °F 23.0 °F 56% 29.90 in 10.0 mi South 11.5 mph 16.1 mph N/A   Clear
9:35 PM 35.6 °F 28.0 °F 21.2 °F 56% 29.90 in 10.0 mi South 10.4 mph 18.4 mph N/A   Clear
9:55 PM 35.6 °F 28.6 °F 21.2 °F 56% 29.91 in 10.0 mi South 9.2 mph - N/A   Clear
10:15 PM 35.6 °F 27.5 °F 21.2 °F 56% 29.91 in 10.0 mi South 11.5 mph 17.3 mph N/A   Clear
10:35 PM 35.6 °F 25.5 °F 21.2 °F 56% 29.91 in 10.0 mi South 17.3 mph - N/A   Clear
10:55 PM 37.4 °F 28.5 °F 21.2 °F 52% 29.91 in 10.0 mi South 15.0 mph 23.0 mph N/A   Clear
11:15 PM 37.4 °F 28.2 °F 19.4 °F 48% 29.91 in 10.0 mi South 16.1 mph - N/A   Clear
11:35 PM 37.4 °F 28.2 °F 19.4 °F 48% 29.92 in 10.0 mi South 16.1 mph - N/A   Clear
11:55 PM 37.4 °F 28.2 °F 19.4 °F 48% 29.91 in 10.0 mi South 16.1 mph 21.9 mph N/A   Clear